CDT,Max TemperatureF,Mean TemperatureF,Min TemperatureF,Max Dew PointF,MeanDew PointF,Min DewpointF,Max Humidity, Mean Humidity, Min Humidity, Max Sea Level PressureIn, Mean Sea Level PressureIn, Min Sea Level PressureIn, Max VisibilityMiles, Mean VisibilityMiles, Min VisibilityMiles, Max Wind SpeedMPH, Mean Wind SpeedMPH, Max Gust SpeedMPH,PrecipitationIn, CloudCover, Events, WindDirDegrees
2013-9-1,71,66,60,66,60,54,94,77,60,29.98,29.86,29.75,10,10,10,17,8,22,0.00,6,Thunderstorm,307
2013-9-2,64,55,46,54,50,45,100,83,68,30.11,30.05,29.98,10,10,10,10,5,,0.00,4,,322
2013-9-3,73,57,41,59,51,41,100,81,50,30.11,30.06,30.01,10,9,1,8,1,,0.00,0,,254
2013-9-4,84,68,51,68,60,52,100,78,51,30.16,30.09,30.02,10,10,3,9,1,,0.00,0,,343
2013-9-5,80,68,55,66,60,54,94,77,54,30.22,30.18,30.12,10,10,7,9,3,,0.00,1,,97
2013-9-6,87,76,64,66,64,61,100,75,43,30.12,30.01,29.89,10,9,4,14,4,23,0.04,1,Rain,180
2013-9-7,91,78,64,70,66,63,100,68,38,30.02,29.92,29.87,10,10,7,13,3,18,0.00,1,,42
2013-9-8,77,70,62,64,62,59,94,79,65,30.05,29.99,29.91,10,10,10,13,7,17,0.00,5,,100
2013-9-9,91,78,66,72,68,64,100,77,49,29.90,29.75,29.65,10,8,2,14,6,22,0.02,3,Rain-Thunderstorm,181
2013-9-10,78,71,64,70,64,63,100,77,57,30.00,29.91,29.77,10,10,10,8,4,,0.00,2,Rain-Thunderstorm,255
2013-9-11,82,70,57,63,57,48,100,68,34,30.07,30.03,30.00,10,10,5,16,4,23,0.00,0,,281
2013-9-12,71,61,51,52,48,43,94,62,35,30.23,30.17,30.07,10,10,10,16,8,22,0.00,2,,336
2013-9-13,66,52,39,48,43,37,100,72,43,30.29,30.21,30.11,10,9,4,6,1,,0.00,0,,122
2013-9-14,71,56,41,55,47,39,100,73,38,30.11,30.01,29.89,10,9,3,14,3,20,0.40,3,Rain,174
2013-9-15,64,56,46,55,52,45,100,85,68,30.32,30.08,29.89,10,9,3,14,6,20,0.36,6,Rain,29
2013-9-16,64,50,37,46,42,36,100,78,45,30.41,30.34,30.26,10,10,5,8,2,,0.00,0,,115
2013-9-17,64,52,41,57,49,39,100,87,64,30.27,30.13,29.95,10,9,3,15,5,23,0.00,5,,147
2013-9-18,71,64,57,68,63,57,100,93,83,29.95,29.81,29.71,10,4,1,12,5,16,0.05,6,Rain-Thunderstorm,158
2013-9-19,77,70,62,68,65,57,100,85,73,29.81,29.73,29.66,10,10,5,21,5,31,0.10,2,Rain-Thunderstorm,237
2013-9-20,62,55,48,55,51,46,100,84,59,29.94,29.87,29.80,10,10,3,18,10,25,0.03,6,Rain,281
2013-9-21,62,52,41,48,45,41,100,83,55,30.00,29.96,29.92,10,10,5,8,4,,0.00,1,,299
2013-9-22,73,55,37,55,48,37,100,79,50,29.98,29.93,29.86,10,8,1,14,4,20,0.00,0,,132
2013-9-23,73,60,48,52,50,46,93,74,43,29.97,29.93,29.88,10,10,10,16,7,25,0.00,0,,139
2013-9-24,73,57,41,54,49,41,100,79,47,29.98,29.95,29.92,10,8,0,13,3,16,0.00,0,Fog,111
2013-9-25,73,57,41,54,49,41,100,79,44,29.99,29.94,29.88,10,7,0,10,2,17,0.00,0,Fog,123
2013-9-26,80,63,46,61,54,46,100,72,45,29.94,29.90,29.85,10,9,5,17,6,26,0.00,0,,141
2013-9-27,82,71,60,61,59,57,88,69,45,29.93,29.88,29.81,10,10,7,22,8,30,0.00,0,Rain,146
2013-9-28,66,55,44,63,53,43,100,84,72,29.96,29.81,29.66,10,9,2,21,9,32,0.16,4,Rain,200
2013-9-29,73,58,42,46,44,39,93,63,33,29.98,29.91,29.82,10,10,10,13,3,21,0.00,0,,180
2013-9-30,77,66,55,52,49,46,72,58,39,29.82,29.69,29.62,10,10,7,18,11,26,0.00,0,,186